Welkom op Weerpagina Nieuwendam !!





My webcam Meer informatie My webcam


Onweer radar Meer informatie blitzortung!


Regen radar  rain snow radar


Bezoek onze andere website:

Template documentation
and downloads

And another site



15 daagse weersverwachting Nieuwendam (NL)

  • Overzicht
  • Per uur
  • 15 dagen
  • Extra
  • Vergelijk
  • Kaarten
  • Dagkaart
  • Meer »
  • Info
  • Statistieken
  • Directe link
    Temp 6h Neerslag Wind  
 08:13     18:38    Daglengte: 10:25 Vandaag
14:00
17°
 
3
20:00
15°
 
2
 08:15     18:36    Daglengte: 10:21 Morgen
02:00
13°
 
2
08:00
12°
 
2
14:00
19°
 
4
20:00
17°
 
4
 08:17     18:34    Daglengte: 10:17 Vrijdag 20 Okt
02:00
15°
 
4
08:00
15°
 
5
14:00
15°
0.8 mm
5
20:00
14°
3.0 mm
5
 08:19     18:32    Daglengte: 10:13 Zaterdag 21 Okt
02:00
12°
 
4
08:00
10°
 
5
Locatie info
Region: Noord-Holland
Latitude: 52.3937°N
Longitude: 4.9381°E
1 masl
Temp/Neerslag /Baro Onweer/Dauwpunt
    Temp Baro 1h Neerslag Dauwpunt Wind UV Bewolking  
 08:13     18:38    Daglengte: 10:25 Vandaag
14:00
17°
1012.8 hPa   12.2°
3
Windvlaag: 1.5 m/s
19%
15:00
17°
1012.7 hPa   13.0°
2
Windvlaag: 1.6 m/s
19%
16:00
18°
1012.4 hPa   13.5°
2
Windvlaag: 1.5 m/s
19%
17:00
18°
1011.8 hPa   13.5°
2
Windvlaag: 1.5 m/s
19%
18:00
17°
1011.6 hPa   13.3°
2
Windvlaag: 1.6 m/s
19%
19:00
16°
1011.7 hPa   13.5°
2
Windvlaag: 2 m/s
18%
20:00
15°
1011.9 hPa   13.6°
2
Windvlaag: 2 m/s
19%
21:00
15°
1011.7 hPa   13.2°
2
Windvlaag: 1.4 m/s
19%
22:00
14°
1011.6 hPa   13.1°
2
Windvlaag: 1.7 m/s
18%
23:00
14°
1011.6 hPa   13.0°
2
Windvlaag: 2.4 m/s
16%
 08:15     18:36    Daglengte: 10:21 Morgen
00:00
14°
1011.4 hPa   12.9°
2
Windvlaag: 3.1 m/s
16%
01:00
13°
1011.2 hPa   12.3°
2
Windvlaag: 3.4 m/s
15%
02:00
13°
1011.0 hPa   12.4°
2
Windvlaag: 3.3 m/s
15%
03:00
14°
1011.0 hPa   13.1°
2
Windvlaag: 2.7 m/s
13%
04:00
13°
1010.7 hPa   12.7°
2
Windvlaag: 2.2 m/s
11%
05:00
13°
1010.3 hPa   12.9°
2
Windvlaag: 3.6 m/s
6%
06:00
13°
1010.0 hPa   12.2°
2
Windvlaag: 3 m/s
11%
07:00
13°
1010.0 hPa   12.1°
2
Windvlaag: 3.3 m/s
13%
08:00
12°
1010.1 hPa   11.4°
2
Windvlaag: 3.2 m/s
9%
09:00
12°
1010.0 hPa   11.4°
3
Windvlaag: 3.8 m/s
10%
10:00
13°
1009.9 hPa   11.2°
3
Windvlaag: 4.4 m/s
15%
11:00
14°
1009.8 hPa   11.5°
3
Windvlaag: 4.4 m/s
17%
12:00
16°
1009.8 hPa   11.7°
4
Windvlaag: 5.1 m/s
14%
13:00
18°
1009.4 hPa   12.1°
4
Windvlaag: 5.9 m/s
14%
14:00
19°
1008.8 hPa   12.4°
4
Windvlaag: 6.8 m/s
13%
15:00
19°
1008.2 hPa   12.5°
4
Windvlaag: 6.9 m/s
11%
16:00
19°
1007.7 hPa   12.5°
5
Windvlaag: 6.6 m/s
13%
17:00
19°
1007.2 hPa   13.2°
5
Windvlaag: 5.2 m/s
10%
18:00
18°
1006.9 hPa   13.7°
4
Windvlaag: 4.2 m/s
13%
19:00
17°
1006.8 hPa   13.9°
3
Windvlaag: 4.8 m/s
12%
20:00
17°
1007.0 hPa   14.1°
4
Windvlaag: 5.4 m/s
14%
21:00
17°
1007.1 hPa   13.5°
4
Windvlaag: 5.3 m/s
12%
22:00
17°
1007.3 hPa   12.7°
4
Windvlaag: 5.8 m/s
13%
23:00
17°
1007.5 hPa   13.0°
4
Windvlaag: 6.2 m/s
15%
 08:17     18:34    Daglengte: 10:17 Vrijdag 20 Okt
00:00
16°
1007.7 hPa   13.2°
4
Windvlaag: 6.5 m/s
16%
01:00
16°
1007.7 hPa   13.4°
4
Windvlaag: 6.6 m/s
14%
02:00
15°
1007.6 hPa   12.5°
4
Windvlaag: 7.2 m/s
14%
03:00
15°
1007.5 hPa   11.9°
4
Windvlaag: 6.8 m/s
18%
04:00
15°
1007.5 hPa   12.0°
4
Windvlaag: 6.7 m/s
19%
05:00
15°
1007.4 hPa   12.2°
4
Windvlaag: 7.4 m/s
19%
06:00
14°
1007.6 hPa   11.4°
4
Windvlaag: 7.8 m/s
19%
07:00
15°
1007.4 hPa   11.3°
5
Windvlaag: 7.9 m/s
19%
08:00
15°
1007.7 hPa
14%
11.0°
5
Windvlaag: 8.5 m/s
17%
09:00
15°
1007.9 hPa
14%
11.7°
5
Windvlaag: 9.4 m/s
19%
10:00
15°
1008.2 hPa
14%
11.6°
5
Windvlaag: 8.7 m/s
19%
11:00
14°
1009.3 hPa 0.7 mm
64%
6.8°
5
Windvlaag: 9.4 m/s
73%
12:00
15°
1009.2 hPa
64%
6.6°
5
Windvlaag: 9.8 m/s
53%
13:00
16°
1009.0 hPa
82%
7.4°
5
Windvlaag: 11 m/s
79%
14:00
15°
1008.6 hPa 0.1 mm
82%
7.8°
5
Windvlaag: 12.1 m/s
79%
15:00
16°
1008.4 hPa
82%
7.9°
5
Windvlaag: 9.4 m/s
6%
16:00
16°
1008.4 hPa 1.8 mm
82%
8.6°
5
Windvlaag: 9.7 m/s
57%
17:00
16°
1008.7 hPa 1.2 mm
82%
7.9°
5
Windvlaag: 9.7 m/s
77%
18:00
15°
1009.0 hPa
82%
8.7°
5
Windvlaag: 9.4 m/s
62%
19:00
14°
1009.6 hPa
82%
9.3°
5
Windvlaag: 9.8 m/s
35%
20:00
14°
1010.2 hPa
82%
8.7°
5
Windvlaag: 10.4 m/s
62%
21:00
13°
1010.6 hPa
82%
10.0°
5
Windvlaag: 10.3 m/s
47%
22:00
13°
1011.1 hPa
82%
9.9°
5
Windvlaag: 9.8 m/s
55%
23:00
13°
1011.7 hPa
82%
10.5°
5
Windvlaag: 9.6 m/s
74%
 08:19     18:32    Daglengte: 10:13 Zaterdag 21 Okt
00:00
13°
1011.7 hPa
82%
11.0°
4
Windvlaag: 9.1 m/s
66%
01:00
12°
1011.8 hPa
82%
10.9°
4
Windvlaag: 8.7 m/s
35%
02:00
12°
1011.8 hPa   10.5°
4
Windvlaag: 8.6 m/s
31%
03:00
11°
1011.7 hPa
82%
10.0°
4
Windvlaag: 8.3 m/s
42%
04:00
11°
1011.6 hPa
82%
9.2°
4
Windvlaag: 8.4 m/s
8%
05:00
11°
1011.3 hPa
82%
8.2°
4
Windvlaag: 8.5 m/s
31%
06:00
11°
1011.0 hPa
82%
5.8°
4
Windvlaag: 7.8 m/s
52%
07:00
10°
1010.8 hPa
82%
6.0°
4
Windvlaag: 8.1 m/s
3%
08:00
10°
1010.2 hPa
82%
6.0°
5
Windvlaag: 9.6 m/s
17%
09:00
12°
1007.3 hPa
82%
7.8°
7
Windvlaag: 12.5 m/s
0%
10:00
12°
1007.5 hPa 0.2 mm
100%
8.8°
7
Windvlaag: 9.6 m/s
0%
11:00
12°
1007.5 hPa 0.4 mm
100%
9.6°
6
Windvlaag: 11 m/s
0%
12:00
13°
1007.7 hPa 1.3 mm
100%
10.7°
7
Windvlaag: 14.6 m/s
0%
13:00
14°
1007.3 hPa 1.8 mm
100%
11.7°
7
Windvlaag: 13.3 m/s
0%
Temp/Neerslag /Baro Onweer/Dauwpunt
    Temp Baro Neerslag Dauwpunt Wind Bewolking  
 08:13     18:38    Daglengte: 10:25 Vandaag
14:00
17°
1012.8 hPa   12.2°
3
19%
17:00
18°
1011.8 hPa   13.5°
2
19%
20:00
15°
1011.9 hPa   13.6°
2
19%
23:00
14°
1011.6 hPa   13.0°
2
16%
 08:15     18:36    Daglengte: 10:21 Morgen
02:00
13°
1011.0 hPa   12.4°
2
15%
05:00
13°
1010.3 hPa   12.9°
2
6%
08:00
12°
1010.1 hPa   11.4°
2
9%
11:00
14°
1009.8 hPa   11.5°
3
17%
14:00
19°
1008.8 hPa   12.4°
4
13%
17:00
19°
1007.2 hPa   13.2°
5
10%
20:00
17°
1007.0 hPa   14.1°
4
14%
23:00
17°
1007.5 hPa   13.0°
4
15%
 08:17     18:34    Daglengte: 10:17 Vrijdag 20 Okt
02:00
15°
1007.6 hPa   12.5°
4
14%
05:00
15°
1007.4 hPa   12.2°
4
19%
08:00
15°
1007.7 hPa   11.0°
5
17%
11:00
14°
1009.3 hPa 0.7 mm 6.8°
5
73%
14:00
15°
1008.6 hPa 0.1 mm 7.8°
5
79%
17:00
16°
1008.7 hPa 3.0 mm 7.9°
5
77%
20:00
14°
1010.2 hPa   8.7°
5
62%
23:00
13°
1011.7 hPa   10.5°
5
74%
 08:19     18:32    Daglengte: 10:13 Zaterdag 21 Okt
02:00
12°
1011.8 hPa   10.5°
4
31%
05:00
11°
1011.3 hPa   8.2°
4
31%
08:00
10°
1010.2 hPa   6.0°
5
17%
11:00
12°
1007.5 hPa 0.5 mm 9.6°
6
0%
14:00
16°
1007.0 hPa 5.0 mm 11.7°
8
0%
17:00
16°
1007.7 hPa 0.1 mm 9.5°
6
0%
20:00
14°
1007.6 hPa 0.1 mm 7.2°
7
0%
23:00
13°
1006.9 hPa   6.7°
8
0%
 08:20     18:30    Daglengte: 10:10 Zondag 22 Okt
02:00
13°
1006.4 hPa 0.2 mm 7.8°
10
0%
05:00
13°
1005.9 hPa 0.1 mm 8.1°
10
1%
08:00
13°
1006.4 hPa 0.7 mm 8.0°
8
1%
11:00
12°
1008.5 hPa 1.3 mm 8.4°
7
1%
14:00
13°
1010.1 hPa 3.0 mm 8.2°
7
1%
17:00
13°
1011.1 hPa 0.6 mm 7.0°
7
1%
20:00
11°
1012.4 hPa 0.7 mm 6.9°
6
1%
23:00
11°
1013.6 hPa 1.5 mm 8.0°
5
1%
 08:22     18:27    Daglengte: 10:05 Maandag 23 Okt
02:00
11°
1014.6 hPa 2.5 mm 8.0°
5
1%
05:00
12°
1015.7 hPa 0.8 mm 8.1°
5
1%
08:00
12°
1017.5 hPa 1.3 mm 8.2°
5
1%
11:00
13°
1019.4 hPa 0.3 mm 8.8°
5
1%
14:00
15°
1020.2 hPa 0.3 mm 9.0°
6
1%
17:00
14°
1020.1 hPa   9.7°
5
1%
20:00
13°
1020.9 hPa   9.8°
4
1%
23:00
13°
1021.4 hPa   10.4°
5
1%
 08:24     18:25    Daglengte: 10:01 Dinsdag 24 Okt
02:00
13°
1021.7 hPa   9.7°
5
1%
05:00
11°
1021.4 hPa   9.0°
4
1%
08:00
10°
1021.7 hPa   7.7°
4
1%
11:00
12°
1022.4 hPa   7.7°
5
1%
14:00
15°
1021.9 hPa   8.1°
4
1%
17:00
15°
1021.2 hPa   8.1°
3
1%
20:00
12°
1021.5 hPa   7.1°
3
1%
23:00
11°
1021.1 hPa   7.2°
3
1%
 08:26     18:23    Daglengte: 9:57 Woensdag 25 Okt
02:00
11°
1020.3 hPa   7.5°
4
1%
05:00
11°
1019.0 hPa   5.9°
4
1%
08:00
10°
1018.3 hPa   5.3°
4
1%
11:00
12°
1017.7 hPa   5.9°
5
1%
14:00
14°
1016.8 hPa   7.1°
5
1%
20:00
14°
1015.4 hPa   7.4°
4
1%
 08:28     18:21    Daglengte: 9:53 Donderdag 26 Okt
02:00
12°
1014.2 hPa   6.7°
4
1%
08:00
10°
Voelt als: 7.9°
1012.0 hPa   4.9°
4
0%
14:00
14°
1010.6 hPa   7.5°
4
1%
20:00
14°
1009.8 hPa   10.0°
5
1%
 08:30     18:19    Daglengte: 9:49 Vrijdag 27 Okt
02:00
13°
1012.1 hPa   10.9°
5
0%
08:00
11°
1014.3 hPa   9.1°
3
0%
14:00
16°
1014.7 hPa   12.5°
4
0%
20:00
15°
1013.9 hPa   12.2°
5
1%
 08:31     18:17    Daglengte: 9:46 Zaterdag 28 Okt
02:00
14°
1014.0 hPa   10.0°
5
1%
08:00
12°
1014.1 hPa 1.5 mm 9.4°
3
0%
14:00
14°
1014.7 hPa 0.8 mm 9.7°
4
0%
20:00
12°
1014.9 hPa 0.8 mm 9.0°
2
0%
 08:33     18:15    Daglengte: 9:42 Zondag 29 Okt
02:00
12°
1014.7 hPa 0.6 mm 8.7°
1
0%
07:00
11°
1013.7 hPa 1.1 mm 8.1°
2
0%
13:00
13°
1013.7 hPa 0.3 mm 9.0°
4
0%
19:00
12°
1012.6 hPa 0.5 mm 9.1°
4
0%
 08:35     18:13    Daglengte: 9:38 Maandag 30 Okt
01:00
12°
1011.9 hPa 0.5 mm 9.4°
4
0%
07:00
11°
1011.0 hPa 0.8 mm 8.7°
3
0%
13:00
13°
1011.5 hPa 0.7 mm 8.2°
3
0%
19:00
12°
1011.2 hPa 0.9 mm 7.7°
3
0%
 08:37     18:12    Daglengte: 9:35 Dinsdag 31 Okt
01:00
11°
1011.4 hPa 1.0 mm 7.3°
3
0%
07:00
11°
1011.0 hPa 1.0 mm 6.8°
2
0%
13:00
13°
1011.5 hPa 0.7 mm 7.7°
3
0%
19:00
11°
1011.1 hPa 0.3 mm 7.6°
2
0%
 08:39     18:10    Daglengte: 9:31 Woensdag 01 Nov
01:00
11°
1010.9 hPa 1.1 mm 7.7°
3
0%
07:00
10°
1009.8 hPa 0.8 mm 7.5°
4
0%
13:00
12°
1009.5 hPa 1.5 mm 8.2°
5
0%
19:00
11°
1009.0 hPa 1.2 mm 7.9°
4
0%
 08:41     18:08    Daglengte: 9:27 Donderdag 02 Nov
01:00
11°
1008.9 hPa 1.4 mm 8.0°
4
0%
07:00
10°
1008.3 hPa 1.4 mm 7.3°
3
0%
  CAPE Lifted Index Hail Supercell Tornado SRH 3km CL BTM PRES CL TOP PRES Swiss DWD icon SMHI TS
 08:13     18:38    Daglengte: 10:25 Vandaag
14:00 0 J/kg 0.8 K 0 % 0 % 0 % 0 m²/s² 0 0 4.85
15:00 0 J/kg 2.1 K 0 % 0 % 0 % 0 m²/s² 0 0 6.36
16:00 0 J/kg 2.3 K 0 % 0 % 0 % 0 m²/s² 0 0 6.65
17:00 0 J/kg 2.1 K 0 % 0 % 0 % 0 m²/s² 0 0 6.45
18:00 0 J/kg 1.7 K 0 % 0 % 0 % 0 m²/s² 0 0 5.84
19:00 0 J/kg 1.1 K 0 % 0 % 0 % 0 m²/s² 0 0 4.82
20:00 0 J/kg 1.3 K 0 % 0 % 0 % 0 m²/s² 0 0 4.48
21:00 0 J/kg 2.1 K 0 % 0 % 0 % 0 m²/s² 0 0 4.56
22:00 0 J/kg 1.7 K 0 % 0 % 0 % 0 m²/s² 0 0 3.83
23:00 0 J/kg 0.4 K 0 % 0 % 0 % 0 m²/s² 0 0 2.38
 08:15     18:36    Daglengte: 10:21 Morgen
00:00 0 J/kg 0.1 K 0 % 0 % 0 % 0 m²/s² 0 0 3.19
01:00 0 J/kg 0.0 K 0 % 0 % 0 % 0 m²/s² 0 0 4.02
02:00 0 J/kg 0.0 K 0 % 0 % 0 % 0 m²/s² 0 0 4.83
03:00 0 J/kg 0.3 K 0 % 0 % 0 % 0 m²/s² 0 0 4.86
04:00 0 J/kg 0.6 K 0 % 0 % 0 % 0 m²/s² 0 0 5.07
05:00 0 J/kg 0.6 K 0 % 0 % 0 % 0 m²/s² 0 0 3.6
06:00 0 J/kg 0.8 K 0 % 0 % 0 % 0 m²/s² 0 0 2.54
07:00 0 J/kg 0.8 K 0 % 0 % 0 % 0 m²/s² 0 0 1.73
08:00 0 J/kg 1.0 K 0 % 0 % 0 % 0 m²/s² 0 0 1.93
09:00 0 J/kg 1.1 K 0 % 0 % 0 % 0 m²/s² 0 0 2.18
10:00 0 J/kg 1.2 K 0 % 0 % 0 % 0 m²/s² 0 0 2.49
11:00 0 J/kg 1.5 K 0 % 0 % 0 % 0 m²/s² 0 0 2.85
12:00 0 J/kg 2.5 K 0 % 0 % 0 % 0 m²/s² 0 0 3.64
13:00 0 J/kg 3.1 K 0 % 0 % 0 % 0 m²/s² 0 0 4.24
14:00 0 J/kg 2.3 K 0 % 0 % 0 % 0 m²/s² 0 0 3.38
15:00 0 J/kg 1.5 K 0 % 0 % 0 % 0 m²/s² 0 0 2.25
16:00 0 J/kg -0.6 K 0 % 0 % 0 % 0 m²/s² 0 0 0.33
17:00 89 J/kg -1.1 K 0 % 0 % 0 % 0 m²/s² 0 0 -0.32
18:00 165 J/kg -1.7 K 0 % 0 % 0 % 0 m²/s² 0 0 -1.4
19:00 135 J/kg -2.3 K 0 % 0 % 0 % 0 m²/s² 0 0 -1.79
20:00 102 J/kg -1.8 K 0 % 0 % 0 % 0 m²/s² 0 0 0.33
21:00 42 J/kg -1.1 K 0 % 0 % 0 % 0 m²/s² 0 0 1.69
22:00 0 J/kg -0.1 K 0 % 0 % 0 % 0 m²/s² 0 0 0.8
23:00 0 J/kg -0.8 K 0 % 0 % 0 % 0 m²/s² 0 0 -0.59
 08:17     18:34    Daglengte: 10:17 Vrijdag 20 Okt
00:00 0 J/kg -1.0 K 0 % 0 % 0 % 0 m²/s² 0 0 0.56
01:00 0 J/kg -0.2 K 0 % 0 % 0 % 0 m²/s² 0 0 0.73
02:00 0 J/kg -0.1 K 0 % 0 % 0 % 0 m²/s² 0 0 0.92
03:00 0 J/kg 0.5 K 0 % 0 % 0 % 0 m²/s² 0 0 1.25
04:00 0 J/kg 0.7 K 0 % 0 % 0 % 0 m²/s² 0 0 1
05:00 0 J/kg 1.7 K 0 % 0 % 0 % 0 m²/s² 0 0 1.88
06:00 0 J/kg 1.3 K 0 % 0 % 0 % 0 m²/s² 0 0 1.63
07:00 0 J/kg 2.1 K 0 % 0 % 0 % 0 m²/s² 0 0 2.22
08:00 0 J/kg 1.0 K 0 % 0 % 0 % 0 m²/s² 0 0 1.18
09:00 0 J/kg 0.9 K 0 % 0 % 0 % 0 m²/s² 0 0 1.02
10:00 0 J/kg 0.5 K 0 % 0 % 0 % 0 m²/s² 0 0 0.74
11:00 0 J/kg 0.4 K 0 % 0 % 0 % 0 m²/s² 0 0 0.88
12:00 0 J/kg 1.0 K 0 % 0 % 0 % 0 m²/s² 0 0 1.33
13:00 1 J/kg 0.0 K 0 % 0 % 0 % 0 m²/s² 0 0 0.12
14:00 2 J/kg 0.4 K 0 % 0 % 0 % 0 m²/s² 0 0 1.24
15:00 92 J/kg -0.1 K 0 % 0 % 0 % 0 m²/s² 0 0 0.92
16:00 150 J/kg -0.1 K 0 % 0 % 0 % 0 m²/s² 0 0 1.46
17:00 106 J/kg 1.0 K 0 % 0 % 0 % 0 m²/s² 0 0 2.23
18:00 98 J/kg 1.7 K 0 % 0 % 0 % 0 m²/s² 0 0 3.53
19:00 10 J/kg 3.3 K 0 % 0 % 0 % 0 m²/s² 0 0 5.34
20:00 3 J/kg 4.6 K 0 % 0 % 0 % 0 m²/s² 0 0 7.57
21:00 13 J/kg 6.5 K 0 % 0 % 0 % 0 m²/s² 0 0 13.1
22:00 23 J/kg 7.9 K 0 % 0 % 0 % 0 m²/s² 0 0 14.14
23:00 27 J/kg 9.2 K 0 % 0 % 0 % 0 m²/s² 0 0 14.51
 08:19     18:32    Daglengte: 10:13 Zaterdag 21 Okt
00:00 8 J/kg 10.3 K 0 % 0 % 0 % 0 m²/s² 0 0 15.61
01:00 0 J/kg 11.5 K 0 % 0 % 0 % 0 m²/s² 0 0 18.43
02:00 0 J/kg 11.8 K 0 % 0 % 0 % 0 m²/s² 0 0 19
03:00 0 J/kg 12.1 K 0 % 0 % 0 % 0 m²/s² 0 0 19.57
04:00 0 J/kg 11.8 K 0 % 0 % 0 % 0 m²/s² 0 0 15.88
05:00 0 J/kg 13.0 K 0 % 0 % 0 % 0 m²/s² 0 0 13.66
06:00 0 J/kg 12.2 K 0 % 0 % 0 % 0 m²/s² 0 0 12.38
07:00 0 J/kg 11.3 K 0 % 0 % 0 % 0 m²/s² 0 0 12.77
08:00 0 J/kg 12.0 K 0 % 0 % 0 % 0 m²/s² 0 0 14.13
09:00 0 J/kg 6.5 K 0 % 0 % 0 % 0 m²/s² 0 0 8.15
10:00 0 J/kg 4.5 K 0 % 0 % 0 % 0 m²/s² 0 0 4.77
11:00 0 J/kg 6.0 K 0 % 0 % 0 % 0 m²/s² 0 0 6.03
12:00 0 J/kg 5.4 K 0 % 0 % 0 % 0 m²/s² 0 0 5.52
13:00 3 J/kg 5.6 K 0 % 0 % 0 % 0 m²/s² 0 0 6.74
Temp Baro Wind Neerslag
  EWN Forecast EWN WRFDA DWD ICON FMI HIRLAM MET Norway GFS
 08:13     18:38    Daglengte: 10:25 Vandaag
14:00 16.6° 1012.8 hPa 3.1 m/s 0.0 mm 18.0° 1012.0 hPa 3.6 m/s 0.0 mm 16.8° 1012.8 hPa 3.2 m/s 0.0 mm 17.2° 1013.4 hPa 3.2 m/s
17:00 17.7° 1011.8 hPa 2.5 m/s 0.0 mm 19.0° 1011.0 hPa 3.1 m/s 0.0 mm 18.2° 1011.8 hPa 2.5 m/s 0.0 mm 18.2° 1012.3 hPa 2.4 m/s
20:00 15.3° 1011.9 hPa 1.5 m/s 0.0 mm 15.7° 1010.8 hPa 2.1 m/s 0.0 mm 15.5° 1011.9 hPa 0.9 m/s 0.0 mm 15.5° 1012.1 hPa 2.2 m/s
23:00 14.3° 1011.6 hPa 1.8 m/s 0.0 mm 14.2° 1010.8 hPa 2.7 m/s 0.0 mm 14.9° 1011.5 hPa 1.5 m/s 0.0 mm 14.5° 1012.2 hPa 2.4 m/s
 08:15     18:36    Daglengte: 10:21 Morgen
02:00 13.4° 1011.0 hPa 2.1 m/s 0.0 mm 13.4° 1010.4 hPa 2.2 m/s 0.0 mm 14.3° 1010.9 hPa 2.5 m/s 0.0 mm 15.2° 1011.7 hPa 2.5 m/s
05:00 13.2° 1010.3 hPa 2.2 m/s 0.0 mm 13.4° 1010.0 hPa 2.6 m/s 0.0 mm 13.4° 1010.1 hPa 2.2 m/s 0.0 mm 14.3° 1011.1 hPa 2.3 m/s
08:00 11.9° 1010.1 hPa 2.2 m/s 0.0 mm 12.0° 1009.3 hPa 2.4 m/s 0.0 mm 12.5° 1010.0 hPa 2.2 m/s 0.0 mm 14.4° 1010.8 hPa 3.0 m/s
11:00 14.4° 1009.8 hPa 2.9 m/s 0.0 mm 16.0° 1009.2 hPa 3.0 m/s 0.0 mm 14.4° 1009.4 hPa 3.5 m/s 0.0 mm 16.1° 1010.6 hPa 3.8 m/s
14:00 18.7° 1008.8 hPa 4.5 m/s 0.0 mm 20.3° 1008.5 hPa 4.6 m/s 0.0 mm 18.5° 1007.8 hPa 5.2 m/s 0.0 mm 19.2° 1009.7 hPa 4.6 m/s
17:00 18.9° 1007.2 hPa 4.6 m/s 0.0 mm 20.8° 1006.9 hPa 4.8 m/s 0.0 mm 18.8° 1006.0 hPa 5.7 m/s 0.0 mm 19.2° 1008.0 hPa 4.4 m/s
20:00 17.3° 1007.0 hPa 3.6 m/s 0.0 mm 18.1° 1006.5 hPa 4.2 m/s 0.0 mm 17.8° 1006.1 hPa 3.6 m/s 0.0 mm 17.1° 1007.7 hPa 4.1 m/s
23:00 17.2° 1007.5 hPa 4.5 m/s 0.0 mm 18.0° 1006.9 hPa 5.1 m/s 0.0 mm 17.9° 1007.0 hPa 4.6 m/s 0.0 mm 17.2° 1007.6 hPa 5.3 m/s
 08:17     18:34    Daglengte: 10:17 Vrijdag 20 Okt
02:00 15.4° 1007.6 hPa 4.1 m/s 0.0 mm 15.3° 1007.5 hPa 4.0 m/s 0.0 mm 16.2° 1006.2 hPa 4.9 m/s 0.0 mm 16.0° 1007.8 hPa 4.6 m/s
05:00 15.3° 1007.4 hPa 4.3 m/s 0.0 mm 15.4° 1007.9 hPa 4.0 m/s 0.0 mm 16.3° 1004.8 hPa 5.8 m/s 0.0 mm 15.2° 1008.1 hPa 3.8 m/s
08:00 14.9° 1007.7 hPa 4.8 m/s 0.0 mm 15.2° 1008.2 hPa 4.3 m/s 0.0 mm 15.7° 1005.2 hPa 7.6 m/s 0.0 mm 14.5° 1008.6 hPa 4.8 m/s
11:00 13.6° 1009.3 hPa 4.9 m/s 0.7 mm 18.2° 1008.8 hPa 4.7 m/s 0.1 mm 14.6° 1009.4 hPa 5.3 m/s
14:00 15.5° 1008.6 hPa 5.1 m/s 0.1 mm 20.1° 1008.2 hPa 5.8 m/s 0.1 mm 17.0° 1009.7 hPa 6.3 m/s
17:00 15.6° 1008.7 hPa 5.2 m/s 3.0 mm 20.0° 1008.1 hPa 6.4 m/s 0.1 mm 16.7° 1009.5 hPa 5.5 m/s
20:00 13.6° 1010.2 hPa 5.0 m/s 0.0 mm 15.5° 1009.4 hPa 4.0 m/s 0.1 mm 14.2° 1010.7 hPa 4.8 m/s
23:00 12.9° 1011.7 hPa 4.6 m/s 0.0 mm 13.8° 1010.3 hPa 3.4 m/s 0.1 mm 13.5° 1011.7 hPa 5.0 m/s
 08:19     18:32    Daglengte: 10:13 Zaterdag 21 Okt
02:00 11.6° 1011.8 hPa 4.2 m/s 0.0 mm 11.9° 1010.2 hPa 3.7 m/s 0.1 mm 12.6° 1011.7 hPa 4.7 m/s
05:00 10.6° 1011.3 hPa 3.9 m/s 0.0 mm 11.7° 1008.9 hPa 4.7 m/s 0.1 mm 11.9° 1010.3 hPa 5.6 m/s
08:00 10.0° 1010.2 hPa 5.0 m/s 0.0 mm 11.4° 1007.4 hPa 6.3 m/s 0.1 mm 12.5° 1008.7 hPa 7.3 m/s
11:00 12.4° 1007.5 hPa 6.2 m/s 0.5 mm 12.4° 1007.5 hPa 6.2 m/s 0.6 mm 12.3° 1008.3 hPa 6.7 m/s
14:00 15.7° 1007.0 hPa 7.5 m/s 5.0 mm 15.7° 1007.0 hPa 7.5 m/s 5.0 mm 15.1° 1008.0 hPa 6.4 m/s
17:00 15.5° 1007.7 hPa 6.4 m/s 0.1 mm 15.5° 1007.7 hPa 6.4 m/s 0.1 mm
20:00 13.8° 1007.6 hPa 6.7 m/s 0.1 mm 13.8° 1007.6 hPa 6.7 m/s 0.1 mm
23:00 13.3° 1006.9 hPa 8.1 m/s 0.0 mm 13.3° 1006.9 hPa 8.1 m/s 0.0 mm
 08:20     18:30    Daglengte: 10:10 Zondag 22 Okt
02:00 12.5° 1006.4 hPa 9.7 m/s 0.2 mm 12.5° 1006.4 hPa 9.7 m/s 0.2 mm
05:00 12.9° 1005.9 hPa 9.6 m/s 0.1 mm 12.9° 1005.9 hPa 9.6 m/s 0.1 mm
08:00 12.6° 1006.4 hPa 8.1 m/s 0.7 mm 12.6° 1006.4 hPa 8.1 m/s 0.7 mm
11:00 12.4° 1008.5 hPa 7.4 m/s 1.3 mm 12.4° 1008.5 hPa 7.4 m/s 1.3 mm
14:00 13.0° 1010.1 hPa 7.2 m/s 3.0 mm 13.0° 1010.1 hPa 7.2 m/s 3.0 mm
17:00 12.5° 1011.1 hPa 6.9 m/s 0.6 mm 12.5° 1011.1 hPa 6.9 m/s 0.6 mm
20:00 11.1° 1012.4 hPa 5.5 m/s 0.7 mm 11.1° 1012.4 hPa 5.5 m/s 0.7 mm
23:00 11.3° 1013.6 hPa 5.0 m/s 1.5 mm 11.3° 1013.6 hPa 5.0 m/s 1.5 mm
 08:22     18:27    Daglengte: 10:05 Maandag 23 Okt
02:00 11.3° 1014.6 hPa 5.1 m/s 2.5 mm 11.3° 1014.6 hPa 5.1 m/s 2.5 mm
05:00 11.6° 1015.7 hPa 4.9 m/s 0.8 mm 11.6° 1015.7 hPa 4.9 m/s 0.8 mm
08:00 11.6° 1017.5 hPa 4.8 m/s 1.3 mm 11.6° 1017.5 hPa 4.8 m/s 1.3 mm
11:00 12.9° 1019.4 hPa 4.6 m/s 0.3 mm 12.9° 1019.4 hPa 4.6 m/s 0.3 mm
14:00 14.6° 1020.2 hPa 5.7 m/s 0.3 mm 14.6° 1020.2 hPa 5.7 m/s 0.3 mm
17:00 14.4° 1020.1 hPa 5.1 m/s 0.0 mm 14.4° 1020.1 hPa 5.1 m/s 0.1 mm
20:00 12.8° 1020.9 hPa 4.2 m/s 0.0 mm 12.8° 1020.9 hPa 4.2 m/s 0.1 mm
23:00 13.1° 1021.4 hPa 4.8 m/s 0.0 mm 13.1° 1021.4 hPa 4.8 m/s 0.0 mm
 08:24     18:25    Daglengte: 10:01 Dinsdag 24 Okt
02:00 12.5° 1021.7 hPa 4.7 m/s 0.0 mm 12.5° 1021.7 hPa 4.7 m/s 0.0 mm
05:00 11.4° 1021.4 hPa 4.4 m/s 0.0 mm 11.4° 1021.4 hPa 4.4 m/s 0.0 mm
08:00 10.5° 1021.7 hPa 4.4 m/s 0.0 mm 10.5° 1021.7 hPa 4.4 m/s 0.0 mm
11:00 12.2° 1022.4 hPa 4.6 m/s 0.0 mm 12.2° 1022.4 hPa 4.6 m/s 0.0 mm
14:00 14.5° 1021.9 hPa 4.4 m/s 0.0 mm 14.5° 1021.9 hPa 4.4 m/s 0.0 mm
17:00 14.5° 1021.2 hPa 3.1 m/s 0.0 mm 14.5° 1021.2 hPa 3.1 m/s 0.0 mm
20:00 11.9° 1021.5 hPa 3.2 m/s 0.0 mm 11.9° 1021.5 hPa 3.2 m/s 0.0 mm
23:00 11.3° 1021.1 hPa 3.5 m/s 0.0 mm 11.3° 1021.1 hPa 3.5 m/s 0.0 mm
 08:26     18:23    Daglengte: 9:57 Woensdag 25 Okt
02:00 11.1° 1020.3 hPa 3.7 m/s 0.0 mm 11.1° 1020.3 hPa 3.7 m/s 0.0 mm
05:00 10.5° 1019.0 hPa 3.7 m/s 0.0 mm 10.5° 1019.0 hPa 3.7 m/s 0.0 mm
08:00 10.3° 1018.3 hPa 4.0 m/s 0.0 mm 10.3° 1018.3 hPa 4.0 m/s 0.0 mm
11:00 11.8° 1017.7 hPa 4.5 m/s 0.0 mm 11.8° 1017.7 hPa 4.5 m/s 0.0 mm
14:00 14.4° 1016.8 hPa 4.6 m/s 0.0 mm 14.4° 1016.8 hPa 4.6 m/s 0.0 mm
20:00 14.1° 1015.4 hPa 3.8 m/s 0.0 mm 14.1° 1015.4 hPa 3.8 m/s 0.0 mm
 08:28     18:21    Daglengte: 9:53 Donderdag 26 Okt
02:00 12.1° 1014.2 hPa 4.0 m/s 0.0 mm 12.1° 1014.2 hPa 4.0 m/s 0.0 mm
08:00 9.8° 1012.0 hPa 3.8 m/s 0.0 mm 9.8° 1012.0 hPa 3.8 m/s 0.0 mm
14:00 13.7° 1010.6 hPa 4.1 m/s 0.0 mm 13.7° 1010.7 hPa 4.1 m/s 0.0 mm
20:00 14.1° 1009.8 hPa 4.7 m/s 0.0 mm 14.1° 1009.8 hPa 4.7 m/s 0.0 mm
 08:30     18:19    Daglengte: 9:49 Vrijdag 27 Okt
02:00 13.4° 1012.1 hPa 5.0 m/s 0.0 mm 13.4° 1012.1 hPa 5.0 m/s 0.0 mm
08:00 10.5° 1014.3 hPa 3.1 m/s 0.0 mm 10.5° 1014.3 hPa 3.1 m/s 0.0 mm
14:00 16.5° 1014.7 hPa 4.0 m/s 0.0 mm 16.5° 1014.7 hPa 4.0 m/s 0.0 mm
20:00 15.3° 1013.9 hPa 4.9 m/s 0.0 mm 15.3° 1013.9 hPa 4.9 m/s 0.0 mm
 08:31     18:17    Daglengte: 9:46 Zaterdag 28 Okt
02:00 14.3° 1014.0 hPa 4.9 m/s 0.0 mm 14.3° 1014.0 hPa 4.9 m/s 0.0 mm
08:00 11.9° 1014.1 hPa 2.5 m/s 1.5 mm
14:00 13.8° 1014.7 hPa 3.5 m/s 0.8 mm
20:00 12.5° 1014.9 hPa 2.4 m/s 0.8 mm
 08:33     18:15    Daglengte: 9:42 Zondag 29 Okt
02:00 11.6° 1014.7 hPa 1.4 m/s 0.6 mm
07:00 11.2° 1013.7 hPa 2.1 m/s 1.1 mm
13:00 13.5° 1013.7 hPa 4.1 m/s 0.3 mm
19:00 12.5° 1012.6 hPa 3.7 m/s 0.5 mm
 08:35     18:13    Daglengte: 9:38 Maandag 30 Okt
01:00 12.0° 1011.9 hPa 3.6 m/s 0.5 mm
07:00 11.4° 1011.0 hPa 2.7 m/s 0.8 mm
13:00 12.9° 1011.5 hPa 3.2 m/s 0.7 mm
19:00 11.8° 1011.2 hPa 3.0 m/s 0.9 mm
 08:37     18:12    Daglengte: 9:35 Dinsdag 31 Okt
01:00 11.1° 1011.4 hPa 2.9 m/s 1.0 mm
07:00 10.7° 1011.0 hPa 2.3 m/s 1.0 mm
13:00 12.6° 1011.5 hPa 3.2 m/s 0.7 mm
19:00 11.4° 1011.1 hPa 2.3 m/s 0.3 mm
 08:39     18:10    Daglengte: 9:31 Woensdag 01 Nov
01:00 10.8° 1010.9 hPa 2.9 m/s 1.1 mm
07:00 10.4° 1009.8 hPa 3.8 m/s 0.8 mm
13:00 12.3° 1009.5 hPa 5.0 m/s 1.5 mm
19:00 11.4° 1009.0 hPa 3.7 m/s 1.2 mm
 08:41     18:08    Daglengte: 9:27 Donderdag 02 Nov
01:00 10.8° 1008.9 hPa 3.9 m/s 1.4 mm
07:00 10.3° 1008.3 hPa 3.0 m/s 1.4 mm
FMI Hirlam - 7.5 km EWN WRFDA - 12 km DWD ICON - 7 km GFS - 25 km Basiskaart






























































Updatetijd (Europe/Amsterdam) Resolutie Lengte Stap
FMI Hirlam 22:30, 04:30, 10:30, 16:30 7.5 km 49h 1h
EWN WRFDA 09:00, 15:00, 21:00, 03:00 12 km 73h 1h
DWD ICON 07:00, 13:00, 19:00, 01:00 7 km 75h 1h
GFS 09:15, 15:15, 21:15, 03:15 25 km 237h 3h
30+ mm
25-30 mm
20-25 mm
15-20 mm
10-15 mm
6-10 mm
4-6 mm
2-4 mm
1-2 mm
0.5-1 mm
0.2-0.5 mm
0.1-0.2 mm
30+ mm
25-30 mm
20-25 mm
15-20 mm
10-15 mm
6-10 mm
4-6 mm
2-4 mm
1-2 mm
0.5-1 mm
0.2-0.5 mm
0.1-0.2 mm
Sneeuwval
Natte sneeuw
Hagel
Vorst
30+ mm
25-30 mm
20-25 mm
15-20 mm
10-15 mm
6-10 mm
4-6 mm
2-4 mm
1-2 mm
0.5-1 mm
0.2-0.5 mm
0.1-0.2 mm
Sneeuwval
Natte sneeuw
Hagel
Vorst
Onweer
50 mm
40 mm
30 mm
26 mm
22 mm
18 mm
14 mm
10 mm
9 mm
8 mm
7 mm
6 mm
5 mm
4.5 mm
4 mm
3.5 mm
3 mm
2.5 mm
2 mm
1.5 mm
1 mm
0.8 mm
0.6 mm
0.4 mm
0.2 mm
0.05 mm
35°
30°
25°
20°
15°
10°
-5°
-10°
-15°
-20°
-25°
-30°
-35°
33> m/s
29 m/s
25 m/s
21 m/s
17 m/s
14 m/s
11 m/s
8 m/s
5 m/s
3 m/s
0 m/s
2600 J/kg
2400 J/kg
2200 J/kg
2000 J/kg
1800 J/kg
1600 J/kg
1400 J/kg
1200 J/kg
1000 J/kg
800 J/kg
600 J/kg
400 J/kg
200 J/kg
70 dBZ
65 dBZ
60 dBZ
55 dBZ
50 dBZ
45 dBZ
40 dBZ
35 dBZ
30 dBZ
25 dBZ
20 dBZ
15 dBZ
10 dBZ
5 dBZ
-1 K
-2 K
-3 K
-4 K
-5 K
-6 K
-7 K
-8 K
-9 K
950 m²/s²
900 m²/s²
850 m²/s²
800 m²/s²
750 m²/s²
700 m²/s²
650 m²/s²
600 m²/s²
550 m²/s²
500 m²/s²
450 m²/s²
400 m²/s²
350 m²/s²
300 m²/s²
250 m²/s²
200 m²/s²
150 m²/s²
100 m²/s²
46 m/s
44 m/s
42 m/s
40 m/s
38 m/s
36 m/s
34 m/s
32 m/s
30 m/s
28 m/s
26 m/s
24 m/s
22 m/s
20 m/s
16 m/s
12 m/s
8 m/s
4 m/s
30 m/s
28 m/s
26 m/s
24 m/s
22 m/s
20 m/s
18 m/s
16 m/s
14 m/s
12 m/s
10 m/s
8 m/s
6 m/s
4 m/s
2 m/s
3.0
2.8
2.6
2.4
2.2
2.0
1.8
1.6
1.4
1.2
1.0
0.8
0.6
0.4
0.2
15
14
13
12
11
10
9
8
7
6
5
4
3
2
1
90%
80%
70%
60%
50%
40%
30%
20%
10%
42
40
38
36
34
32
30
28
26
24
22
20
18
16
14
12
90+ cm
80-90 cm
70-80 cm
60-70 cm
50-60 cm
40-50 cm
30-40 cm
20-30 cm
10-20 cm
1-10 cm
Sneeuwval
Natte sneeuw
Regen
>120 mm
115 mm
110 mm
105 mm
100 mm
95 mm
90 mm
85 mm
80 mm
75 mm
70 mm
65 mm
60 mm
55 mm
50 mm
45 mm
45 mm
40 mm
35 mm
30 mm
25 mm
20 mm
15 mm
10 mm
5 mm
0.1 mm
960 hPa
880 hPa
800 hPa
720 hPa
640 hPa
560 hPa
584 gpdm
568 gpdm
552 gpdm
536 gpdm
520 gpdm
504 gpdm
488 gpdm
Extreem zwaar Noodweer Kans op onweer
15% 15% 5% 50% 15%

Dag




Kaart






35°
30°
25°
20°
15°
10°
-5°
-10°
-15°
-20°
-25°
-30°
-35°
33> m/s
29 m/s
25 m/s
21 m/s
17 m/s
14 m/s
11 m/s
8 m/s
5 m/s
3 m/s
0 m/s
Extreem zwaar Noodweer Kans op onweer
15% 15% 5% 50% 15%
>120 mm
115 mm
110 mm
105 mm
100 mm
95 mm
90 mm
85 mm
80 mm
75 mm
70 mm
65 mm
60 mm
55 mm
50 mm
45 mm
45 mm
40 mm
35 mm
30 mm
25 mm
20 mm
15 mm
10 mm
5 mm
0.1 mm
Onweer risico kaarten - De groene en gele kleur geeft de kans op onweer aan binnen 40 km van een punt. Oranje, rood en violet hebben hetzelfde niveau zoals je het ziet op estofex.org waaronder ook de kans op hagel en supercells.

dBZ - dBZ staat voor decibel ten opzichte van Z.

Cape - Convective available potential energy (CAPE), is de totale hoeveelheid energie die een luchtpakketje nodig heeft om zover mogelijk te stijgen in de atmosfeer.

K Index - K-Index wordt berekend door de Vertical Totals (VT) en het verschil tussen de 850 hPa temperatuur en de 700 hPa dauwpuntsdepressie (Tdd 700) bij elkaar op te tellen.

TT Index - Convectie index wordt gebruikt voor het voorspellen van zware buien of onweer.

WRF - The Weather Research and Forecasting (WRF) is een volgende generatie mesoscale numeriek weersvoorspelling systeem ontworpen om zowel de operationele planning als het atmosferisch onderzoek te dienen. WRF is a cooperatie tussen het National Center for Atmospheric Research (NCAR), National Centers for Environmental Prediction (NCEP), Forecast Systems Laboratory (FSL), Air Force Weather Agency (AFWA), Naval Research Laboratory, University of Oklahoma, en de Federal Aviation Administration (FAA). Deze software draait op onze server.

WRFDA - Een meer geavanceerde versie van WRF

Arome - Het 2.5 km Arome model. Verzorgd door het Noors Meteorologisch Instituut.

MET Norway - De proff-default 4km meteorological data is een beste keus selectie van meteorologische modellen gebruikt door met.no die zijn geïnterpoleerd tot een gemeenschappelijke dataset. Verzorgd door het Noorse Meteorologisch Instituut.

SMHI - Het Hirlam model verzorgd door het Zweeds meteorologisch instituut.

FMI - Het Hirlam model verzorgd door het Fins meteorologisch instituut. Dekking alleen Finland.

GFS - Het Global Forecast Systeem (GFS) is een wereldwijd numerieke weersvoorspelling computermodel, gerund door NOAA.

GEM-GDPS - Het GEM-GDPS is a wereldwijd numeriek weersvoorspelling computermodel verzorgd door het Canadees Meteorologisch Centrum.

Credits/Info: Dank aan Stefan Gofferje van sääkeskus.fi voor enkele formules van GrADS. Info: Wikipedia.

Betrouwbaarheid van de verwachting

NB! 2015-03-29: Rebuilding the accuracy-test!

EWNACC
Day 1 Good forecasts

Dag 1 Tmax

Dag 2 Tmax

Geladen verwachtingen TOP 50

Totaal geladen verwachtingen:
Plaats Latitude Longitude Verwachtingen Plaats Latitude Longitude Verwachtingen
De waarden zijn gebaseerd op numerieke modellen. We proberen ze zo nauwkeurig mogelijk te krijgen, maar het echte weer is afhankelijk van allerlei fenomenen die niet automatisch kunnen worden opgehaald. Daarom, wanneer een waarde hoog is (bijv. Onweer kans), is dit niet een belofte dat het zal gebeuren!

De EWN-Weersverwachting gebruikt meerdere gratis bronnen voor de verwachting.
Daarnaast gebruiken we een eigen versie van WRFDA-EMS op 12 km resolutie die in de statistieken worden opgenomen. De kaarten zijn ook gegenereerd uit de WRFDA EMS-gegevens.

In de weersverwachting zijn inhoud en gegevens gebruikt van:
NCEP (GFS), The Canadian Meteorological Center (GEM-GDPS), Norwegian Meteorological Institute (MET Norway), Swedish Meteorological and Hydrological Institute (SMHI), Finnish meteorological institute (FMI), Temis (UV-forecast), Geonames, WXSIM - near private weatherstations with the WXSIM-software.
Creative Commons -lisenssi © 2017 European Weathernetwork. Script by Henkka, nordicweather.net with help from Oebel (weerstation-assen.nl), Henrik (silkeborg-vejret.dk), Alex (lokaltvader.se), Stefan (Wetterstation-Johanngeorgenstadt) and Daniel (wetterdienst.de). Reusage without permission forbidden.
Except where otherwise noted, content on this page is licensed under a Creative Commons Attribution 3.0 License.

U vindt ons ook hier:

UK Metoffice

European Weather Network

WeatherCloud

Weather Underground

Benelux Weer Netwerk

AWEKAS

Citizen Weather Observer Program (CWOP)

Apparatuur in gebruik:

Weerstation
Davis VP2

Weerprogramma
Weather Display

Weercomputer
My Computer

Davis VP2

Weather Display

My Computer